Starlink 6377

operational
NORAD ID: 57341 Int'l Des: 2023-099 Owner: SPXS Country: US Constellation: starlink
LEOCIRCULAR

Starlink 6377について

説明を読み込み中...

リアルタイム位置

3D地球を読み込み中...

次回通過

高度履歴

Altitude vs Time

uPlot chart will show altitude changes over time

軌道要素

1 57341U 23099P 25352.96415944 -.00003576 00000-0 -24968-3 0 9997
2 57341 43.0045 327.5858 0001021 254.5170 105.5559 15.02550201133978
Epoch: Dec 18, 2025 • Age: 31 hours

現在のステータス

高度 570.3 km
速度 7.58 km/s
衛星直下点 -39.68°S, 15.25°E
打ち上げ日 Jul 16, 2023
運用期間 2.4 years
タイプ internet

技術仕様

分類 Payload
質量 305.00 kg
乾燥質量 290.00 kg
総質量 305.00 kg
長さ 0.20 m
直径 2.80 m
スパン 9.00 m
形状 Box + pan
製造者 SPXS
バスタイプ Starlink
フェーズステータス In Orbit
所有者/国 SPXS/US

大規模コンステレーション

Loading constellations...